This is the latest recevied weather packets stored in our database for station/object KD9JB-1. If no packets are shown the sender has not sent any weather packets the latest 10 day(s).
| Time | Temp. | Humidity | Pressure | Rain* | Wind** | Luminosity | Snow |
|---|---|---|---|---|---|---|---|
| 1778177791 | 17.22° C | 35% | 1016.5 hPa | 0 mm | - | - | - |
| 1778177491 | 16.67° C | 38% | 1016.4 hPa | 0 mm | - | - | - |
| 1778177191 | 16.67° C | 35% | 1016.5 hPa | 0 mm | - | - | - |
| 1778176891 | 16.67° C | 34% | 1016.5 hPa | 0 mm | - | - | - |
| 1778176591 | 17.22° C | 37% | 1016.6 hPa | 0 mm | - | - | - |
| 1778176291 | 16.67° C | 35% | 1016.7 hPa | 0 mm | - | - | - |
| 1778175991 | 16.67° C | 33% | 1016.8 hPa | 0 mm | - | - | - |
| 1778175691 | 16.67° C | 34% | 1016.8 hPa | 0 mm | - | - | - |
| 1778175391 | 16.11° C | 36% | 1016.8 hPa | 0 mm | - | - | - |
| 1778175091 | 15.56° C | 38% | 1016.9 hPa | 0 mm | - | - | - |
| 1778174791 | 16.11° C | 36% | 1017 hPa | 0 mm | - | - | - |
| 1778174491 | 16.67° C | 37% | 1017 hPa | 0 mm | - | - | - |
| 1778174191 | 16.11° C | 38% | 1017.1 hPa | 0 mm | - | - | - |
| 1778173891 | 15.56° C | 35% | 1017.2 hPa | 0 mm | - | - | - |
| 1778173591 | 16.11° C | 39% | 1017.4 hPa | 0 mm | - | - | - |
| 1778173291 | 16.11° C | 38% | 1017.3 hPa | 0 mm | - | - | - |
| 1778172991 | 15.56° C | 36% | 1017.3 hPa | 0 mm | - | - | - |
| 1778172691 | 15.56° C | 36% | 1017.3 hPa | 0 mm | - | - | - |
| 1778172391 | 16.11° C | 40% | 1017.4 hPa | 0 mm | - | - | - |
| 1778172091 | 15.56° C | 37% | 1017.5 hPa | 0 mm | - | - | - |
| 1778171791 | 15.56° C | 36% | 1017.5 hPa | 0 mm | - | - | - |
| 1778171491 | 15.56° C | 38% | 1017.5 hPa | 0 mm | - | - | - |
| 1778171191 | 15.56° C | 34% | 1017.6 hPa | 0 mm | - | - | - |
| 1778170891 | 15.56° C | 36% | 1017.7 hPa | 0 mm | - | - | - |
| 1778170591 | 15.56° C | 38% | 1017.7 hPa | 0 mm | - | - | - |
* Rain latest hour (hover to see other rain measurements)
** Current wind speed in m/s (hover to see current wind gust speed)